Vertical_Velocity
-1 -1 0 -1 -2 -2 -0 -3 -1 -2 -2 -2 -2 -2 0 6 4 -7 -4 5 4 3 1 2 1 1 2 6 1 3 2 4 1 6 -2 5 1 -0 2 -1 -0 4 6 3 0 3 -2 3 1
2 1 -0 -0 -1 -1 1 -0 -0 1 0 0 4 2 -0 -4 1 4 2 2 1 1 2 3 4 1 3 3 5 2 2 1 -1 3 3 4 4 3 0 1 -0 2 2 3 2 4 0 0 0
-1 -1 -2 -0 -1 -2 -2 -1 0 0 -0 2 3 2 4 -2 -2 2 3 -1 2 1 1 2 2 4 0 1 2 9 1 1 1 0 -1 3 5 1 1 0 -1 -1 2 1 2 2 0 -3 1
-4 -2 -2 -3 -3 -2 -1 -1 0 0 -0 -0 1 1 4 1 4 1 -0 2 1 2 1 1 0 2 3 1 5 5 8 3 2 3 0 -2 5 5 1 1 1 -1 3 4 1 2 1 -1 -2
-1 -1 -1 -2 -2 -1 0 -1 -3 -2 4 4 3 -0 -1 -2 0 0 3 5 2 -0 3 2 1 2 2 1 6 4 2 6 3 -0 1 4 2 4 0 3 0 -0 1 4 3 1 1 -0 -1
-1 -1 -3 -1 -0 -0 -2 -2 -0 3 2 -1 -3 2 1 1 4 2 3 3 6 -0 1 3 1 0 2 2 2 6 7 9 5 2 3 3 -5 7 0 1 0 1 -1 0 3 2 1 -1 0
-1 -0 -2 -1 -1 -2 -1 2 5 -1 -2 -1 2 -0 0 3 4 1 1 0 -1 -0 -3 -5 2 1 0 -1 -1 -0 8 6 11 5 2 2 10 0 4 3 2 -2 2 -0 2 3 2 -0 1
-2 -3 -1 -2 -2 -3 0 2 3 1 4 2 1 -4 -1 3 1 2 4 -1 -1 2 -2 -2 -7 -1 0 1 -1 -1 2 2 6 9 6 3 11 14 13 2 0 -3 -1 2 -3 1 5 1 1
-5 -2 -3 -3 1 0 0 -0 0 -1 2 -1 2 -0 -1 -1 1 -0 -3 -3 -0 -1 -1 -4 -4 -9 -5 1 1 -1 0 1 -0 7 6 8 4 9 6 5 6 7 2 0 -3 -0 1 3 1
-4 -3 -0 1 -1 -1 0 -0 -4 5 2 -2 -0 -0 3 2 0 -1 -4 -6 -1 1 -1 -0 -2 -6 -5 -7 0 -1 -2 -2 3 -0 11 19 1 9 11 1 7 6 -1 14 2 0 1 1 0
-2 -2 -1 -2 0 -2 -1 -1 -2 -4 1 -1 2 -2 2 3 1 -3 -8 -1 0 3 -1 -4 -1 -3 -6 -6 -1 -2 -2 -2 -3 2 -1 14 16 5 -3 6 -3 1 14 10 -2 1 4 -1 -0
-2 -3 -4 -2 -1 -6 -5 -3 -4 0 -3 -2 2 -1 -1 2 -1 -3 -2 -2 -3 -5 -2 -4 -4 -0 -3 -4 -4 0 -3 -3 -4 -0 3 -1 3 4 13 9 4 -2 2 9 2 0 6 2 -2
-5 -4 -2 -1 -6 1 -4 -1 0 -0 -6 -3 -3 -1 -3 -1 0 -0 -1 -1 0 -1 0 -0 0 -2 -1 -1 -4 -3 -1 -3 -3 -5 3 -4 24 34 74 -6 7 6 3 7 -4 1 -4 0 -0
2 3 -0 -3 2 -4 -4 3 -2 2 -2 -4 -3 -3 -2 -1 -3 -1 -0 0 1 -1 -1 -1 0 -2 -1 -2 -4 -3 -1 -3 -4 -1 -2 3 -4 -11 27 6 -9 2 7 4 3 2 -0 2 2
-3 -1 1 -5 -3 -5 -2 0 1 -1 -3 -3 -3 -1 -2 1 -0 -2 -0 0 1 1 -3 -4 -2 -3 -3 -3 -3 -5 -0 -3 -4 -1 -3 -1 7 21 -30 46 21 -3 4 8 5 2 8 3 -3
-3 -1 -9 -5 0 1 -2 4 2 1 -0 -2 -5 -5 0 -1 1 1 -1 -3 -4 -3 -4 -1 -2 -6 -3 -2 -2 -3 -3 -0 -6 -1 1 1 -4 -2 4 21 1 5 8 2 8 -4 9 2 1
-5 -6 0 -3 -1 1 -3 -1 2 -2 -3 -2 1 -1 1 -0 -1 2 -2 -1 3 -1 -3 -3 -2 -1 -4 -3 -2 -3 -2 -2 -2 -3 3 0 5 12 -16 21 12 38 21 6 12 -1 2 1 -4
-2 -3 -1 -1 -0 3 0 1 -4 -4 1 -1 -1 2 -1 1 2 -3 -1 5 -0 -3 -3 -5 -5 -5 -1 -1 -4 -1 -1 -2 -3 -4 0 2 -2 8 25 7 3 -16 3 -7 13 12 2 4 7
-1 0 -1 -3 -2 -9 -4 -2 -3 -2 -3 -4 -1 -5 -3 -1 -4 0 -1 -3 -7 -3 -6 -4 -4 -4 -4 -1 -4 -3 1 -0 -4 -3 0 2 -4 -3 11 7 13 13 10 1 3 9 -3 -7 3
2 -1 -2 -5 2 -6 -2 -3 -2 -3 -8 -1 -5 -5 -2 -5 -4 -1 -1 -4 -4 -9 -5 -3 -4 -3 -3 -3 -3 -5 -3 0 -2 -2 -4 5 -3 5 -18 25 12 27 7 31 -1 13 -7 14 3
-2 -5 -4 -3 -6 -3 -6 -6 -3 -4 -6 -7 -2 -3 -2 -3 -3 -4 -4 -2 -1 -1 -4 -3 -3 -5 -2 -2 -1 -4 -3 1 -3 -1 -3 -1 -4 -0 2 -5 6 18 21 25 -8 7 -9 -6 -3
-1 -2 0 1 -3 -5 -1 -15 -4 -2 -1 -6 -7 -5 -4 -0 -0 -1 -0 1 -1 -5 -5 -4 -4 -6 -4 -3 -1 -1 -7 -3 -2 -4 -2 -2 -0 -4 3 1 -13 36 9 1 33 4 8 4 -5
-2 -0 -2 -2 -1 -2 -2 2 -4 -5 -2 -5 -5 -6 -8 -5 -4 -0 7 5 -3 -6 -8 -12 -10 -6 -5 -4 -3 -1 -2 -6 1 -1 -5 -2 -2 -3 -5 -2 -12 37 8 12 11 -16 18 10 7
-2 1 2 -3 -0 -3 -2 -2 -13 -2 -5 -4 -5 -3 2 3 5 6 4 -1 -7 -4 -5 -3 0 0 -1 -5 -3 -2 -1 -2 -3 3 -6 -5 -2 -1 7 1 -12 -8 -0 11 4 5 10 -7 5
-1 -7 -5 -10 -6 -6 -1 -0 -13 -1 -5 -4 -3 -3 -5 -4 1 -6 -8 -8 -4 -3 -0 -1 -3 -5 -4 -1 -5 -5 1 -4 -3 1 1 -3 -1 2 4 7 4 1 15 17 6 17 -8 3 6
-5 -6 -4 -3 -2 -6 1 -9 -8 -3 1 -1 -2 -0 2 2 -2 -2 -2 0 -0 -0 1 -5 -3 -2 -5 -7 1 -3 -5 -4 -5 -2 1 0 -6 2 -0 3 2 -6 -5 4 8 9 3 19 -1
-2 -4 -3 0 -1 -2 -1 -5 -15 -3 -2 -1 -1 -2 -4 -0 -2 -2 0 -2 2 -0 -4 -3 -5 -4 -4 -4 -8 -3 -4 -4 -4 2 -2 1 -1 3 -1 4 9 -15 -16 11 14 5 19 -6 -4
-1 -2 -5 -2 -5 -3 -6 -6 -16 -4 -0 -1 -3 2 -3 -2 2 2 -1 1 -0 -4 2 2 -2 -2 -8 -7 -4 -5 -6 -5 -3 -4 0 -4 6 -2 -4 -4 -14 -2 -17 -0 4 7 27 9 -0
0 -2 -2 -1 -2 -5 -2 -27 -6 0 0 -3 1 1 -6 -7 -1 -3 -2 0 -3 1 -1 -1 -1 -3 -5 -5 -7 1 -7 -1 -4 -5 0 -4 2 2 -0 -2 2 4 -12 6 1 3 8 -4 22
-1 -0 -0 -3 -3 0 0 -49 1 0 -3 -4 1 3 1 -3 -7 -2 1 -2 -4 -2 -0 0 1 -1 2 -4 -3 -1 -0 -4 -3 -2 2 -1 -5 6 3 0 2 1 -1 -15 2 10 -4 1 -5
Height
3142 3141 3139 3139 3143 3139 3138 3138 3136 3136 3135 3135 3134 3134 3135 3132 3130 3131 3126 3128 3129 3131 3133 3134 3136 3137 3139 3140 3141 3141 3143 3144 3146 3149 3151 3153 3154 3156 3157 3158 3158 3159 3160 3162 3163 3164 3165 3167 3168
3140 3139 3139 3138 3139 3136 3137 3135 3134 3134 3133 3131 3131 3130 3129 3127 3125 3122 3125 3128 3125 3125 3127 3129 3131 3133 3135 3137 3138 3139 3140 3141 3142 3144 3148 3150 3153 3155 3156 3157 3158 3158 3160 3161 3163 3164 3166 3167 3168
3140 3139 3139 3137 3137 3136 3135 3133 3132 3132 3131 3129 3128 3126 3124 3122 3122 3120 3121 3124 3124 3122 3123 3125 3127 3128 3130 3132 3134 3136 3136 3138 3140 3140 3143 3147 3150 3153 3154 3156 3157 3158 3159 3161 3162 3164 3166 3167 3169
3140 3140 3139 3137 3135 3135 3134 3131 3130 3129 3128 3126 3124 3123 3120 3118 3118 3118 3116 3117 3120 3120 3119 3121 3122 3124 3124 3128 3130 3131 3132 3134 3137 3139 3139 3141 3147 3150 3152 3155 3156 3157 3158 3160 3162 3164 3166 3167 3169
3139 3138 3137 3135 3134 3132 3130 3127 3126 3127 3125 3121 3118 3117 3115 3112 3111 3111 3110 3110 3112 3114 3115 3115 3117 3117 3119 3120 3124 3126 3127 3129 3133 3135 3137 3137 3141 3147 3150 3152 3154 3156 3158 3159 3161 3164 3165 3167 3169
3138 3137 3135 3133 3132 3129 3126 3125 3122 3120 3118 3116 3115 3112 3110 3105 3104 3104 3104 3103 3104 3108 3109 3109 3111 3112 3112 3114 3116 3119 3122 3124 3128 3130 3133 3135 3134 3139 3146 3149 3152 3153 3155 3157 3160 3162 3164 3166 3168
3137 3135 3133 3131 3129 3126 3123 3121 3117 3114 3112 3112 3109 3105 3102 3098 3098 3098 3098 3097 3098 3099 3102 3103 3102 3105 3106 3108 3110 3112 3115 3119 3122 3125 3128 3131 3133 3134 3138 3146 3149 3151 3153 3155 3158 3160 3162 3164 3166
3135 3134 3131 3129 3126 3122 3120 3117 3112 3111 3108 3106 3102 3098 3093 3092 3094 3094 3093 3091 3090 3090 3092 3094 3095 3094 3098 3099 3102 3105 3108 3111 3116 3119 3123 3127 3130 3131 3133 3138 3145 3147 3150 3153 3155 3158 3160 3162 3165
3135 3133 3129 3125 3122 3120 3117 3112 3109 3105 3101 3097 3095 3092 3092 3090 3088 3088 3087 3085 3085 3084 3083 3083 3085 3088 3089 3091 3094 3097 3099 3104 3108 3112 3117 3121 3125 3127 3128 3131 3139 3144 3147 3149 3152 3155 3158 3161 3164
3132 3129 3126 3123 3119 3116 3113 3107 3103 3099 3094 3093 3090 3088 3086 3084 3083 3081 3080 3080 3079 3078 3076 3075 3076 3077 3080 3083 3085 3088 3092 3096 3099 3105 3109 3113 3118 3122 3123 3124 3130 3138 3142 3145 3149 3151 3155 3158 3161
3129 3127 3124 3120 3115 3112 3108 3103 3100 3094 3089 3086 3084 3084 3082 3080 3078 3077 3075 3074 3073 3071 3070 3069 3069 3071 3072 3074 3076 3078 3083 3088 3092 3096 3102 3105 3109 3114 3118 3120 3122 3130 3137 3140 3143 3148 3151 3154 3158
3128 3125 3122 3116 3111 3107 3102 3098 3091 3087 3086 3083 3079 3078 3079 3077 3074 3072 3070 3069 3067 3066 3065 3064 3064 3063 3065 3066 3068 3069 3073 3079 3083 3087 3094 3098 3100 3102 3104 3110 3118 3121 3131 3134 3138 3143 3148 3152 3155
3124 3121 3116 3110 3106 3100 3096 3093 3085 3080 3079 3077 3076 3075 3075 3075 3072 3069 3067 3065 3063 3061 3060 3059 3059 3058 3058 3060 3062 3062 3064 3069 3074 3080 3083 3088 3087 3079 3085 3102 3108 3115 3122 3128 3132 3138 3144 3148 3153
3122 3117 3114 3109 3101 3096 3093 3089 3080 3077 3073 3072 3071 3070 3070 3069 3067 3066 3065 3062 3060 3059 3058 3056 3055 3054 3052 3052 3054 3055 3056 3059 3064 3070 3075 3077 3080 3080 3087 3092 3102 3109 3113 3122 3128 3134 3140 3145 3149
3119 3116 3112 3108 3099 3091 3086 3085 3078 3072 3070 3067 3066 3067 3066 3066 3063 3063 3062 3060 3058 3056 3055 3054 3052 3049 3046 3045 3046 3047 3049 3051 3055 3060 3067 3069 3071 3077 3083 3085 3091 3102 3108 3116 3123 3129 3135 3141 3145
3116 3111 3108 3102 3094 3089 3085 3080 3074 3071 3066 3063 3061 3061 3062 3062 3061 3061 3060 3057 3055 3053 3050 3049 3046 3044 3041 3039 3038 3038 3040 3043 3046 3050 3055 3060 3066 3073 3076 3079 3086 3092 3100 3108 3117 3124 3129 3135 3141
3113 3109 3101 3098 3090 3089 3087 3080 3073 3067 3063 3060 3057 3057 3057 3056 3058 3057 3054 3052 3051 3048 3044 3042 3041 3039 3035 3033 3032 3031 3031 3035 3038 3040 3046 3052 3058 3065 3067 3073 3079 3087 3091 3100 3109 3117 3124 3129 3135
3111 3104 3100 3097 3093 3088 3083 3075 3066 3063 3062 3060 3057 3055 3053 3053 3053 3051 3050 3050 3047 3042 3039 3036 3035 3032 3029 3026 3024 3024 3023 3026 3029 3032 3036 3041 3051 3059 3065 3064 3071 3078 3083 3093 3102 3108 3117 3125 3130
3113 3108 3101 3097 3092 3083 3077 3071 3064 3062 3060 3057 3053 3051 3050 3050 3048 3047 3046 3043 3040 3036 3032 3028 3026 3025 3021 3017 3015 3015 3014 3016 3020 3023 3027 3032 3040 3049 3057 3060 3064 3070 3079 3086 3096 3100 3107 3116 3125
3113 3108 3100 3095 3089 3081 3075 3069 3064 3062 3057 3054 3052 3049 3047 3046 3045 3043 3039 3035 3031 3027 3024 3020 3017 3015 3014 3008 3007 3005 3005 3008 3011 3015 3018 3023 3031 3038 3045 3049 3061 3065 3074 3079 3087 3093 3101 3112 3117
3111 3106 3097 3091 3084 3080 3074 3065 3062 3059 3057 3054 3050 3049 3045 3043 3041 3038 3034 3030 3025 3019 3015 3010 3006 3004 3003 3000 2997 2997 2996 2998 3001 3004 3009 3013 3020 3028 3034 3044 3049 3058 3064 3072 3080 3087 3095 3102 3110
3108 3104 3097 3088 3085 3083 3078 3070 3059 3055 3053 3051 3047 3045 3042 3039 3035 3031 3027 3022 3016 3010 3004 3000 2996 2993 2992 2990 2986 2986 2987 2987 2990 2993 2999 3004 3009 3018 3025 3033 3040 3048 3056 3062 3068 3080 3088 3096 3103
3110 3100 3092 3087 3083 3080 3079 3073 3055 3052 3050 3046 3041 3037 3035 3033 3029 3025 3020 3012 3004 2999 2992 2986 2984 2982 2981 2979 2976 2973 2974 2976 2978 2982 2987 2993 2999 3004 3013 3020 3029 3038 3045 3050 3057 3070 3078 3088 3100
3106 3097 3087 3084 3081 3079 3076 3079 3055 3051 3047 3042 3038 3035 3032 3027 3024 3018 3011 3002 2992 2986 2980 2973 2967 2964 2964 2964 2964 2961 2961 2962 2965 2970 2974 2981 2988 2994 2999 3009 3023 3029 3037 3041 3050 3063 3072 3084 3096
3107 3098 3089 3089 3086 3085 3075 3073 3054 3050 3043 3038 3032 3028 3024 3021 3017 3007 2997 2988 2980 2973 2966 2959 2953 2948 2949 2947 2947 2947 2946 2948 2950 2956 2962 2968 2976 2984 2990 2997 3003 3020 3026 3032 3043 3054 3067 3078 3087
3105 3104 3108 3113 3102 3087 3074 3063 3049 3046 3040 3034 3029 3022 3018 3012 3003 2993 2985 2975 2967 2958 2949 2944 2938 2932 2929 2929 2930 2930 2930 2931 2935 2940 2947 2953 2961 2971 2979 2985 2995 3011 3016 3025 3036 3043 3059 3072 3082
3107 3106 3106 3103 3099 3095 3068 3055 3043 3041 3036 3030 3024 3018 3011 3001 2991 2980 2971 2962 2953 2944 2938 2928 2919 2914 2912 2910 2909 2909 2912 2914 2917 2923 2931 2939 2946 2958 2967 2974 2983 2994 3008 3018 3025 3035 3049 3063 3075
3108 3107 3103 3101 3103 3093 3065 3053 3041 3036 3031 3025 3017 3010 3001 2990 2978 2968 2957 2948 2938 2931 2922 2912 2904 2897 2893 2888 2887 2887 2889 2894 2898 2904 2913 2924 2932 2943 2954 2962 2974 2986 3001 3009 3019 3027 3040 3051 3066
3103 3101 3101 3100 3098 3098 3089 3042 3035 3030 3025 3016 3009 3000 2989 2978 2967 2955 2946 2936 2926 2917 2904 2894 2884 2878 2872 2868 2864 2865 2865 2873 2877 2885 2895 2907 2918 2928 2941 2953 2964 2973 2986 3006 3011 3019 3031 3044 3057
3098 3095 3095 3095 3092 3089 3083 3041 3029 3025 3019 3009 2998 2989 2979 2968 2955 2944 2933 2922 2910 2899 2888 2876 2867 2861 2855 2852 2848 2848 2847 2854 2858 2865 2877 2890 2903 2914 2927 2940 2951 2962 2975 2996 3003 3013 3021 3034 3047